Date String (YYYY-MM-DD hh:mm:ss) UTC,Instrument flags,Ambient pressure (hPa),Sample flow (lpm),Bypass flow (lpm),Sample temperature (°C),Ambient temperature (°C),ASC tube jacket temperature (°C),LED temperature (°C),Box temperature (°C),Sample RH (%),Span deviation,Mass concentration (μg/m³),Mass concentration (μg/m³),Mass concentration (μg/m³)
DateTimeUTC,F1_M11,P_M11,Q1_M11,Q2_M11,T1_M11,T2_M11,T3_M11,T4_M11,T5_M11,U1_M11,ZSPAN_M11,X0_M11,X2_M11,X1_M11
2022-04-13 16:00:00,,0819.0,5.00,0.00,21.5,20.7,00.0,30.5,23.1,06.7,0000.0,0008.48,0004.22,0003.76
2022-04-13 16:01:00,,0819.0,5.00,0.00,21.4,20.6,00.0,30.5,23.0,06.4,0000.0,0008.35,0004.09,0003.62
2022-04-13 16:02:00,,0818.9,5.01,0.00,21.4,20.4,00.0,30.5,22.9,05.4,0000.0,0008.03,0003.88,0003.42
2022-04-13 16:03:00,,0818.9,4.99,0.00,21.4,21.0,00.0,30.5,23.0,05.4,0000.0,0007.74,0003.64,0003.18
2022-04-13 16:04:00,,0818.9,5.02,0.00,21.6,22.4,00.0,30.5,23.4,05.1,0000.0,0007.47,0003.40,0002.86
2022-04-13 16:05:00,,0818.9,4.99,0.00,21.8,23.2,00.0,30.6,23.8,04.8,0000.0,0006.99,0003.12,0002.44
2022-04-13 16:06:00,,0818.9,5.01,0.00,21.8,22.9,00.0,30.6,23.8,05.0,0000.0,0006.63,0002.81,0002.11
2022-04-13 16:07:00,,0818.9,5.00,0.00,21.9,22.5,00.0,30.6,23.7,05.0,0000.0,0006.56,0002.64,0001.93
2022-04-13 16:08:00,,0818.9,5.00,0.00,21.8,22.2,00.0,30.7,23.6,05.0,0000.0,0006.24,0002.58,0001.90
2022-04-13 16:09:00,,0818.8,4.99,0.00,21.8,21.9,00.0,30.7,23.6,04.8,0000.0,0005.55,0002.56,0001.89
2022-04-13 16:10:00,,0818.8,5.01,0.00,21.8,21.7,00.0,30.7,23.5,04.8,0000.0,0003.74,0002.34,0001.71
2022-04-13 16:11:00,,0818.9,5.01,0.00,21.8,21.5,00.0,30.7,23.5,04.8,0000.0,0003.29,0002.03,0001.44
2022-04-13 16:12:00,,0818.8,5.00,0.00,21.8,21.4,00.0,30.7,23.5,04.8,0000.0,0003.05,0001.80,0001.24
2022-04-13 16:13:00,,0818.8,4.99,0.00,21.8,21.3,00.0,30.7,23.4,04.9,0000.0,0002.92,0001.72,0001.20
2022-04-13 16:14:00,,0818.8,5.00,0.00,21.7,21.1,00.0,30.7,23.4,04.9,0000.0,0002.93,0001.72,0001.19
2022-04-13 16:15:00,,0818.9,5.01,0.00,21.7,21.0,00.0,30.7,23.3,05.0,0000.0,0002.81,0001.68,0001.18
2022-04-13 16:16:00,,0818.9,5.00,0.00,21.7,21.0,00.0,30.7,23.3,04.8,0000.0,0002.82,0001.67,0001.18
2022-04-13 16:17:00,,0819.0,5.00,0.00,21.6,20.9,00.0,30.7,23.3,04.5,0000.0,0002.83,0001.64,0001.17
2022-04-13 16:18:00,,0818.9,5.00,0.00,21.6,20.9,00.0,30.7,23.2,04.5,0000.0,0002.53,0001.54,0001.15
2022-04-13 16:19:00,,0818.9,5.00,0.00,21.6,20.8,00.0,30.7,23.2,04.4,0000.0,0002.46,0001.52,0001.13
2022-04-13 16:20:00,,0819.0,5.00,0.00,21.6,20.8,00.0,30.6,23.2,05.5,0000.0,0002.66,0001.66,0001.24
2022-04-13 16:21:00,,0818.9,5.00,0.00,21.6,20.8,00.0,30.6,23.2,04.4,0000.0,0003.01,0001.73,0001.30
2022-04-13 16:22:00,,0818.9,5.00,0.00,21.6,20.8,00.0,30.6,23.3,04.3,0000.0,0002.96,0001.69,0001.28
2022-04-13 16:23:00,,0818.8,4.99,0.00,21.6,20.8,00.0,30.6,23.2,04.4,0000.0,0002.84,0001.64,0001.26
2022-04-13 16:24:00,,0818.8,5.00,0.00,21.6,20.9,00.0,30.6,23.2,04.3,0000.0,0002.97,0001.67,0001.24
2022-04-13 16:25:00,,0818.9,5.01,0.00,21.7,22.0,00.0,30.6,23.5,04.3,0000.0,0003.18,0001.71,0001.23
2022-04-13 16:26:00,,0819.0,4.99,0.00,21.9,23.0,00.0,30.7,23.9,04.2,0000.0,0003.25,0001.71,0001.22
2022-04-13 16:27:00,,0818.9,5.01,0.00,22.0,23.0,00.0,30.7,23.9,04.1,0000.0,0003.24,0001.71,0001.21
2022-04-13 16:28:00,,0818.9,5.00,0.00,22.0,22.6,00.0,30.8,23.8,04.2,0000.0,0003.26,0001.70,0001.20
2022-04-13 16:29:00,,0818.9,4.99,0.00,21.9,22.2,00.0,30.8,23.7,04.2,0000.0,0003.37,0001.74,0001.20
2022-04-13 16:30:00,,0818.9,4.99,0.00,21.9,22.0,00.0,30.8,23.7,04.3,0000.0,0003.48,0001.74,0001.19
2022-04-13 16:31:00,,0819.0,5.01,0.00,21.9,21.8,00.0,30.8,23.6,04.3,0000.0,0003.62,0001.61,0001.05
2022-04-13 16:32:00,,0818.9,5.01,0.00,21.9,21.6,00.0,30.8,23.6,04.4,0000.0,0003.28,0001.52,0000.98
2022-04-13 16:33:00,,0819.0,4.98,0.00,21.9,21.4,00.0,30.8,23.6,04.4,0000.0,0003.89,0001.53,0000.98
2022-04-13 16:34:00,,0818.9,5.00,0.00,21.8,21.3,00.0,30.8,23.5,04.4,0000.0,0004.12,0001.51,0000.97
2022-04-13 16:35:00,,0819.0,5.01,0.00,21.8,21.2,00.0,30.8,23.5,04.4,0000.0,0003.99,0001.47,0000.96
2022-04-13 16:36:00,,0819.0,5.00,0.00,21.8,21.2,00.0,30.8,23.5,04.5,0000.0,0003.72,0001.40,0000.94
2022-04-13 16:37:00,,0818.9,5.01,0.00,21.8,21.1,00.0,30.8,23.4,04.5,0000.0,0003.61,0001.38,0000.93
2022-04-13 16:38:00,,0818.9,4.99,0.00,21.8,21.1,00.0,30.8,23.4,04.6,0000.0,0003.68,0001.41,0000.92
2022-04-13 16:39:00,,0818.9,4.99,0.00,21.8,21.0,00.0,30.8,23.4,04.6,0000.0,0003.75,0001.42,0000.92
2022-04-13 16:40:00,,0819.0,5.00,0.00,21.8,21.0,00.0,30.8,23.4,04.6,0000.0,0003.82,0001.42,0000.91
2022-04-13 16:41:00,,0818.9,5.00,0.00,21.7,21.0,00.0,30.8,23.4,04.6,0000.0,0003.94,0001.45,0000.90
2022-04-13 16:42:00,,0818.9,5.00,0.00,21.7,20.9,00.0,30.8,23.4,04.6,0000.0,0003.52,0001.44,0000.91
2022-04-13 16:43:00,,0818.9,5.00,0.00,21.7,20.9,00.0,30.8,23.4,04.7,0000.0,0003.43,0001.40,0000.90
2022-04-13 16:44:00,,0818.9,5.00,0.00,21.7,20.9,00.0,30.8,23.4,04.8,0000.0,0003.15,0001.40,0000.89
2022-04-13 16:45:00,,0819.0,5.00,0.00,21.7,20.9,00.0,30.7,23.4,04.8,0000.0,0002.60,0001.43,0000.89
2022-04-13 16:46:00,,0818.9,5.01,0.00,21.7,21.0,00.0,30.7,23.4,04.9,0000.0,0002.62,0001.43,0000.89
2022-04-13 16:47:00,,0818.9,5.00,0.00,21.7,20.9,00.0,30.7,23.4,04.7,0000.0,0003.91,0001.46,0000.90
2022-04-13 16:48:00,,0818.9,5.01,0.00,21.7,21.1,00.0,30.7,23.5,04.7,0000.0,0004.27,0001.48,0000.89
2022-04-13 16:49:00,,0818.9,5.00,0.00,21.8,22.1,00.0,30.8,23.7,04.6,0000.0,0004.63,0001.44,0000.88
2022-04-13 16:50:00,,0819.0,5.01,0.00,22.0,23.2,00.0,30.9,24.1,04.3,0000.0,0004.49,0001.39,0000.87
2022-04-13 16:51:00,,0818.9,4.99,0.00,22.1,23.1,00.0,30.9,24.1,04.0,0000.0,0004.35,0001.34,0000.85
2022-04-13 16:52:00,,0818.9,5.00,0.00,22.2,22.8,00.0,30.9,24.1,04.2,0000.0,0004.31,0001.32,0000.83
2022-04-13 16:53:00,,0819.0,4.99,0.00,22.1,22.4,00.0,30.9,24.0,04.3,0000.0,0004.26,0001.30,0000.82
2022-04-13 16:54:00,,0818.9,4.99,0.00,22.1,22.2,00.0,30.9,23.9,04.4,0000.0,0004.30,0001.29,0000.81
2022-04-13 16:55:00,,0818.9,5.00,0.00,22.1,21.9,00.0,30.9,23.9,04.5,0000.0,0004.49,0001.33,0000.80
2022-04-13 16:56:00,,0818.9,5.01,0.00,22.1,21.7,00.0,31.0,23.8,04.6,0000.0,0005.53,0001.37,0000.80
2022-04-13 16:57:00,,0818.8,5.00,0.00,22.0,21.5,00.0,31.0,23.8,04.8,0000.0,0005.82,0001.38,0000.79
2022-04-13 16:58:00,,0818.9,5.01,0.00,22.0,21.3,00.0,30.9,23.7,04.8,0000.0,0004.68,0001.32,0000.78
2022-04-13 16:59:00,,0819.0,5.00,0.00,22.0,21.2,00.0,30.9,23.6,04.9,0000.0,0004.20,0001.32,0000.77
